Погода в Жилине

Россия / Белгородская область     50°37′32″N   37°48′22″E
темп.,
°C
ветер,
м/с
пор.,
м/с
влажн.,
%
обл.,
%
осадки,
мм/ч
давл.,
гПа
погр.,
м
25 февраля, чт
чт2500:00−9ююз41094100 0.4 1035394
03:00−9ююз51094100 0.8 1033349
06:00−8ююз5994100 0.1 1031323
09:00−6юз61093100 0.2 1029341
12:00−1зюз61093100 0.0 1027453
15:00+1зюз61295100 0.1 1024377
18:00+2зюз81597100 0.1 1023409
21:00+2з51199100 0.6 1022281
26 февраля, пт
пт2600:00+2з51398100 0.1 1022307
03:00+2з51099100 0.3 1022269
06:00+2зсз4999100 0.0 1021192
09:00+2з51099100 0.1 1020258
12:00+3з61298100 0.0 1019413
15:00+3з71497100 0.0 1017525
18:00+3з71397100 0.1 1015485
21:00+2з51297100 0.3 1015372
27 февраля, сб
сб2700:00+2з61195100 0.0 1013453
03:00+2з51194100 0.0 1012418
06:00+1з51195100 0.0 1010413
09:00+1з61197100 0.1 1009567
12:00+2з6108895 0.1 1009800
15:00+1з6109698 0.2 1009646
18:00+1зсз51096100 0.1 1008507
21:00+1зсз51097100 0.2 1009509
28 февраля, вс
вс2800:000сз51095100 0.1 1010578
03:000ссз6118298 0.3 1012973
06:00−4с7107799 0.1 1014791
09:00−5с797499 0.1 1016839
12:00−4с6970100 0.0 1018789
15:00−3ссз6970100 0.0 1019791
18:00−4ссз6875100 0.0 1020773
21:00−4с5780100 0.1 1022735
1 марта, пн
пн100:00−5ссв4681100 0.1 1024717
03:00−5с4678100 0.1 1025735
06:00−5с4778100 0.1 1027738
09:00−5с4780100 0.1 1028642
12:00−3с467198 0.0 1030737
15:00−2с456782 0.0 1031741
18:00−3сз357851 0.0 1031477
21:00−4сз378233 0.0 1032385